Flag for Martinique Weather past 2 weeks in Fort-de-France, Martinique

Now
86 °F

Clear.


Feels Like: 88 °F
Forecast: 70 / 85 °F
Wind: 10 mph from East

Location: Le Lamentin Airport

Current Time: Jan 31, 2015 at 1:49:40 PM

Latest Report: Jan 31, 2015 at 1:00 PM


Visibility: N/A

Pressure: 29.98 "Hg

Humidity: 52%

Dew point: 66 °F

Location of Fort-de-FranceLocation

Historic Weather in Fort-de-France — Graph

°F

Fort-de-France temperature yesterday

Maximum temperature yesterday: 86 °F (at 12:30 PM)
Minimum temperature yesterday: 68 °F (at 3:30 AM)
Average temperature yesterday: 76 °F

Past Weeks' High & Low Weather Summary

 TemperatureHumidityPressure
High86 °F (Jan 17, 10:30 AM)100% (Jan 17, 3:30 AM)30.04 "Hg (Jan 17, 3:30 AM)
Low68 °F (Jan 19, 4:30 AM)49% (Jan 28, 1:00 PM)29.92 "Hg (Jan 16, 4:30 PM)
Average78 °F79%29.97 "Hg
* Reported Jan 16 1:00 PM — Jan 31 1:00 PM, Fort-de-France, Weather by CustomWeather, © 2014

Note: Actual official high and low records may vary slightly from our data, if they occured in-between our weather recording intervals... More about our weather records

Advertising

Fort-de-France weather history for previous 24 hours

 ConditionsComfort  
Time TempWeatherWind HumidityBarometerVisibility
1:00 PM
Jan 31
86 °FClear.10 mph52%29.98 "HgN/A
12:30 PM86 °FPassing clouds.10 mph55%29.98 "HgN/A
12:00 PM86 °FPassing clouds.9 mph52%29.98 "HgN/A
11:30 AM84 °FPassing clouds.10 mph58%30.01 "HgN/A
11:00 AM84 °FPassing clouds.10 mph62%30.01 "HgN/A
10:30 AM84 °FPassing clouds.10 mph62%30.01 "HgN/A
10:00 AM84 °FScattered clouds.9 mph62%30.01 "HgN/A
9:30 AM82 °FScattered clouds.7 mph66%30.01 "HgN/A
9:00 AM81 °FPassing clouds.5 mph74%30.01 "HgN/A
8:30 AM77 °FPassing clouds.3 mph83%30.01 "HgN/A
8:00 AM73 °FPassing clouds.3 mph94%30.01 "HgN/A
7:30 AM70 °FClear.3 mph100%29.98 "HgN/A
7:00 AM68 °FClear.3 mph100%29.98 "HgN/A
6:30 AM68 °FClear.5 mph100%29.95 "HgN/A
6:00 AM68 °FClear.5 mph100%29.95 "HgN/A
5:30 AM68 °FClear.3 mph94%29.95 "HgN/A
5:00 AM68 °FClear.3 mph100%29.95 "HgN/A
4:30 AM68 °FClear.3 mph100%29.95 "HgN/A
4:00 AM68 °FClear.6 mph100%29.92 "HgN/A
3:30 AM68 °FClear.3 mph100%29.92 "HgN/A
3:00 AM68 °FClear.3 mph100%29.92 "HgN/A
2:30 AM70 °FClear.5 mph94%29.95 "HgN/A
2:00 AM70 °FClear.3 mph94%29.95 "HgN/A
1:30 AM70 °FClear.5 mph94%29.95 "HgN/A
1:00 AM70 °FClear.5 mph94%29.95 "HgN/A
12:30 AM72 °FClear.3 mph94%29.95 "HgN/A
12:00 AM72 °FClear.2 mph94%29.98 "Hg4 mi
11:00 PM
Jan 30
72 °FPassing clouds.3 mph94%29.98 "HgN/A
10:30 PM72 °FPassing clouds.2 mph94%29.98 "HgN/A
10:00 PM73 °FClear.2 mph89%29.98 "HgN/A
9:30 PM73 °FClear.2 mph89%29.98 "HgN/A
9:00 PM73 °FClear.3 mph89%29.98 "HgN/A
8:30 PM73 °FClear.3 mph89%29.98 "HgN/A
8:00 PM75 °FClear.No wind78%29.95 "HgN/A
7:30 PM75 °FClear.2 mph78%29.95 "HgN/A
7:00 PM77 °FClear.6 mph74%29.95 "HgN/A
6:30 PM77 °FClear.5 mph74%29.95 "HgN/A
6:00 PM79 °FClear.7 mph70%29.95 "HgN/A
5:30 PM81 °FClear.10 mph62%29.92 "HgN/A
5:00 PM82 °FClear.12 mph58%29.92 "HgN/A
4:30 PM82 °FClear.10 mph58%29.92 "HgN/A
4:00 PM84 °FScattered clouds.10 mph58%29.92 "HgN/A
3:30 PM84 °FPassing clouds.12 mph58%29.92 "HgN/A
3:00 PM84 °FPassing clouds.12 mph55%29.92 "HgN/A
2:30 PM84 °FPassing clouds.13 mph55%29.92 "HgN/A
2:00 PM86 °FPassing clouds.12 mph59%29.92 "HgN/A
1:30 PM86 °FClear.12 mph55%29.92 "HgN/A
1:00 PM86 °FScattered clouds.13 mph52%29.95 "HgN/A
Weather by CustomWeather, © 2014

See weather overviewHow to use our weather pages